Regional Weather Roundup
Issued by NWS Sterling, VA

Current Version | Previous Version | Text Only | Print | Product List | Glossary On
Versions: 1 2 3 4 5 6 7 8 9 10 11 12 13 14 15 16 17 18 19 20 21 22 23 24 25 26 27 28 29 30 31 32 33 34 35 36 37 38 39 40 41 42 43 44 45 46 47 48 49 50
903
ASUS41 KLWX 100610
RWRLWX

REGIONAL WEATHER ROUNDUP
NATIONAL WEATHER SERVICE BALTIMORE MD/WASHINGTON DC
100 AM EST WED FEB 10 2016

Note: "FAIR" indicates few or no clouds below 12,000 feet
with no significant weather and/or obstructions to visibility.
 TC=TEMPERATURE CELSIUS

 * =Non NWS site. Station does not report precipitation (e.g. rain,
    snow, etc.), thunder, or fog.

DCZ001-MDZ009-015-VAZ040>042-051-053>054-100700-
WASHINGTON METRO

CITY           SKY/WX    TMP DP  RH WIND       PRES   REMARKS
WASHINGTON NAT CLOUDY    32  19  58 NW10      29.71S WCI  24
DULLES         CLOUDY    30  18  60 W14G21    29.70R WCI  19
ANDREWS AFB    CLOUDY    31  19  62 NW14      29.68S WCI  20
FT BELVOIR     CLOUDY    32  18  55 NW12G20   29.70S WCI  23
QUANTICO       CLOUDY    34  20  56 NW8       29.72S WCI  27
COLLEGE PARK*  CLOUDY    32  21  64 W6G16     29.70R
LEESBURG*      CLOUDY    32  25  74 NW16G25   29.70S WCI  21
MANASSAS*      CLOUDY    32  21  64 NW16      29.71S WCI  21
GAITHERSBURG*  CLOUDY    27  19  74 W14       29.71S WCI  15

$$

MDZ006>007-011-014-100700-
BALTIMORE METRO

CITY           SKY/WX    TMP DP  RH WIND       PRES   REMARKS
BWI AIRPORT    CLOUDY    30  21  69 W14G24    29.67S WCI  19
MD SCIENCE CTR   N/A     32  22  66 MISG      29.67S
MARTIN STATE   CLOUDY    32  27  80 W10       29.68S WCI  24
ANNAPOLIS      CLOUDY    32  22  66 W13       29.68S WCI  22
FORT MEADE*    CLOUDY    30  23  74 W8G17     29.71S WCI  23

$$

MDZ012-015-019>023-100700-
MARYLAND EASTERN SHORE

CITY           SKY/WX    TMP DP  RH WIND       PRES   REMARKS
OCEAN CITY     CLOUDY    33  28  81 W8        29.66S WCI  26
SALISBURY      CLOUDY    34  27  75 W6        29.66S
BAY BRIDGE AP*   N/A     32  23  69 W10       29.68S WCI  24
CAMBRIDGE*     CLOUDY    32  23  69 NW8       29.67S WCI  25
EASTON*        CLOUDY    33  25  73 NW9G18    29.71S WCI  25

$$

MDZ017>025-100700-
SOUTHERN MARYLAND

CITY           SKY/WX    TMP DP  RH WIND       PRES   REMARKS
PATUXENT RIVER CLOUDY    33  20  58 NW14      29.69S WCI  23
ST INIGOES     CLOUDY    34  22  61 NW8       29.69S WCI  27
LEONARDTOWN*   CLOUDY    32  21  64 W7        29.70S

$$

MDZ003>005-100700-
NORTH CENTRAL MARYLAND

CITY           SKY/WX    TMP DP  RH WIND       PRES   REMARKS
FREDERICK*     CLOUDY    28  27  93 W13       29.72S WCI  18
HAGERSTOWN APT CLOUDY    27  20  75 W9        29.68S WCI  18
WESTMINSTER*   LGT SNOW  27  25  93 W8        29.64S WCI  18

$$

MDZ501>502-100700-
WESTERN MARYLAND

CITY           SKY/WX    TMP DP  RH WIND       PRES   REMARKS
OAKLAND*       CLOUDY    16  14  93 W14G21    29.59S FOG     WCI   1
CUMBERLAND*    PTCLDY    30  18  59 W8        29.74S WCI  23

$$

VAZ025>031-100700-
SHENANDOAH VALLEY

CITY           SKY/WX    TMP DP  RH WIND       PRES   REMARKS
WINCHESTER*    CLOUDY    30  19  64 W8        29.70S WCI  23
FRONT ROYAL*   CLOUDY    30  18  59 SW7       29.69S
LURAY*         CLOUDY    28  14  54 SW8       29.70F WCI  20
NEW MARKET*    CLOUDY    28  11  50 SW5       29.70F
STAUNTON*      CLOUDY    31  15  51 W5        29.73S
WAYNESBORO*    CLOUDY    25  12  57 W3        29.70S

$$

WVZ021-048>050-054>055-100700-
EASTERN WEST VIRGINIA PANHANDLE

CITY           SKY/WX    TMP DP  RH WIND       PRES   REMARKS
MARTINSBURG    CLOUDY    28  17  63 W9        29.70S WCI  19
PETERSBURG*    MOCLDY    28  12  51 CALM      29.73S

$$

VAZ036>039-050-100700-
CENTRAL FOOTHILLS

CITY           SKY/WX    TMP DP  RH WIND       PRES   REMARKS
CHARLOTTESVILL CLOUDY    30  15  53 W3        29.71S
CULPEPER*      CLOUDY    31  17  58 NW10G16   29.72S WCI  22
ORANGE*        CLOUDY    32  19  59 SW10      29.72S WCI  24
GORDONSVILLE*  CLOUDY    31  18  56 W6        29.71R
WARRENTON*     CLOUDY    32  23  69 W6        29.70S

$$

VAZ055>057-100700-
NORTH AND CENTRAL PIEDMONT

CITY           SKY/WX    TMP DP  RH WIND       PRES   REMARKS
FREDERICKSBRG* CLOUDY    33  24  70 NW6       29.71S
STAFFORD*      CLOUDY    32  21  64 NW5       29.74F

$$

NCZ024-NYZ072-PAZ021-071-VAZ022-071-100700-
OTHER REGIONAL OBSERVATIONS

CITY           SKY/WX    TMP DP  RH WIND       PRES   REMARKS
NEW YORK CITY  CLOUDY    33  26  75 CALM      29.61F
PHILADELPHIA   CLOUDY    34  29  82 W9        29.63S WCI  27
PITTSBURGH     LGT SNOW  24  20  84 SW9       29.68S WCI  14
ROANOKE        MOCLDY    25  12  58 W10G18    29.80S WCI  15
RICHMOND       CLOUDY    31  16  54 W13       29.72S WCI  21
RALEIGH        PTCLDY    29  12  49 W7        29.84R

$$

ANZ530>537-100700-
MARINE OBSERVATIONS

STATION/POSITION TIME  TEMP    WIND        PRES
                       AIR SEA DIR/SP/G
                 (UTC) (F)     (DEG/KT/KT) (MB)
THOMAS PT LIGHT  NOT AVBL
BALT KEY BRIDGE  0500   33     280/ 15/ 18 1004.7R
COVE POINT       0500   33     330/ 12/ 17 1005.8R
LEWISETTA        0500   35 41  300/  5/  7 1005.4R
SOLOMONS ISLAND  0500   34 41  310/  9/ 13   N/A
PINEY POINT      0500          320/ 14/ 17   N/A

$$





USA.gov is the U.S. government's official web portal to all federal, state and local government web resources and services.